• In Hungary
  • List of Countries
  • For 7 days
  • Water Temperature
  • Satellite Maps
  • Weather Map
  • News
  • Weather Widgets
  • user-avatar
    Login

    Hourly Weather Prosek

    Today, 22 October, Sunday

    Time Temperature Precipitation Wind Pressure Humidity
    00:00 +13°C° 0.7 mm 1 mps 736 mmHg 90%
    01:00 +13°C° 0.7 mm 1 mps 736 mmHg 92%
    02:00 +13°C° 1.6 mm 2 mps 735 mmHg 92%
    03:00 +12°C° 1.6 mm 3 mps 735 mmHg 92%
    04:00 +12°C° 1.6 mm 3 mps 735 mmHg 91%
    05:00 +12°C° 1.4 mm 3 mps 735 mmHg 91%
    06:00 +11°C° 1.4 mm 3 mps 735 mmHg 91%
    07:00 +10°C° 1.4 mm 4 mps 736 mmHg 90%
    08:00 +11°C° 0.4 mm 4 mps 736 mmHg 87%
    09:00 +11°C° 0.4 mm 4 mps 736 mmHg 84%
    10:00 +11°C° 0.4 mm 4 mps 736 mmHg 81%
    11:00 +12°C° 0 mm 5 mps 736 mmHg 75%
    12:00 +12°C° 0 mm 5 mps 736 mmHg 69%
    13:00 +13°C° 0 mm 5 mps 736 mmHg 64%
    14:00 +12°C° 0 mm 4 mps 736 mmHg 65%
    15:00 +12°C° 0 mm 4 mps 735 mmHg 67%
    16:00 +11°C° 0 mm 3 mps 735 mmHg 69%
    17:00 +11°C° 0 mm 3 mps 735 mmHg 71%
    18:00 +10°C° 0 mm 3 mps 736 mmHg 73%
    19:00 +9°C° 0 mm 3 mps 736 mmHg 75%
    20:00 +9°C° 0 mm 3 mps 736 mmHg 77%
    21:00 +8°C° 0 mm 3 mps 736 mmHg 79%
    22:00 +8°C° 0 mm 3 mps 736 mmHg 81%
    23:00 +8°C° 0 mm 3 mps 736 mmHg 81%

    Tomorrow, 23 October, Monday

    Time Temperature Precipitation Wind Pressure Humidity
    00:00 +8°C° 0 mm 3 mps 737 mmHg 82%
    01:00 +8°C° 0 mm 3 mps 737 mmHg 82%
    02:00 +7°C° 0 mm 3 mps 737 mmHg 83%
    03:00 +7°C° 0 mm 3 mps 737 mmHg 85%
    04:00 +7°C° 0 mm 3 mps 737 mmHg 86%
    05:00 +7°C° 0 mm 3 mps 737 mmHg 86%
    06:00 +5°C° 0 mm 3 mps 737 mmHg 86%
    07:00 +5°C° 0 mm 3 mps 737 mmHg 86%
    08:00 +7°C° 0 mm 3 mps 737 mmHg 81%
    09:00 +7°C° 0 mm 4 mps 737 mmHg 76%
    10:00 +10°C° 0 mm 4 mps 738 mmHg 71%
    11:00 +10°C° 0.1 mm 4 mps 738 mmHg 71%
    12:00 +10°C° 0.1 mm 4 mps 738 mmHg 72%
    13:00 +10°C° 0.1 mm 4 mps 738 mmHg 73%
    14:00 +10°C° 0.1 mm 4 mps 738 mmHg 76%
    15:00 +10°C° 0.1 mm 4 mps 738 mmHg 78%
    16:00 +8°C° 0.1 mm 4 mps 738 mmHg 80%
    17:00 +8°C° 0.1 mm 4 mps 739 mmHg 81%
    18:00 +8°C° 0.1 mm 4 mps 739 mmHg 82%
    19:00 +8°C° 0.1 mm 4 mps 739 mmHg 83%
    20:00 +8°C° 0 mm 4 mps 739 mmHg 84%
    21:00 +8°C° 0 mm 3 mps 740 mmHg 85%
    22:00 +8°C° 0 mm 3 mps 740 mmHg 87%
    23:00 +8°C° 0 mm 3 mps 740 mmHg 88%

    Day after tomorrow, 24 October, Tuesday

    Time Temperature Precipitation Wind Pressure Humidity
    00:00 +8°C° 0 mm 3 mps 740 mmHg 89%
    01:00 +8°C° 0 mm 3 mps 741 mmHg 90%
    02:00 +7°C° 0 mm 2 mps 741 mmHg 91%
    03:00 +7°C° 0 mm 2 mps 741 mmHg 91%
    04:00 +7°C° 0 mm 2 mps 741 mmHg 92%
    05:00 +7°C° 0 mm 2 mps 741 mmHg 93%
    06:00 +7°C° 0 mm 2 mps 742 mmHg 93%
    07:00 +6°C° 0 mm 2 mps 742 mmHg 93%
    08:00 +8°C° 0 mm 2 mps 742 mmHg 88%
    09:00 +9°C° 0 mm 2 mps 742 mmHg 82%
    10:00 +12°C° 0 mm 2 mps 743 mmHg 76%
    11:00 +12°C° 0 mm 2 mps 743 mmHg 72%
    12:00 +13°C° 0 mm 2 mps 743 mmHg 68%
    13:00 +14°C° 0 mm 2 mps 743 mmHg 64%
    14:00 +14°C° 0 mm 2 mps 743 mmHg 66%
    15:00 +14°C° 0 mm 1 mps 743 mmHg 69%
    16:00 +13°C° 0 mm 1 mps 743 mmHg 71%
    17:00 +12°C° 0 mm 1 mps 743 mmHg 76%
    18:00 +11°C° 0 mm 1 mps 743 mmHg 81%
    19:00 +10°C° 0 mm 1 mps 744 mmHg 85%
    20:00 +10°C° 0 mm 1 mps 744 mmHg 87%
    21:00 +10°C° 0 mm 1 mps 744 mmHg 88%
    22:00 +10°C° 0 mm 1 mps 744 mmHg 90%
    23:00 +10°C° 0 mm 1 mps 744 mmHg 91%

    25 October, Wednesday

    Time Temperature Precipitation Wind Pressure Humidity
    00:00 +10°C° 0 mm 1 mps 744 mmHg 92%
    01:00 +9°C° 0 mm 1 mps 744 mmHg 93%
    02:00 +9°C° 0 mm 1 mps 744 mmHg 94%
    03:00 +9°C° 0 mm 1 mps 744 mmHg 94%
    04:00 +9°C° 0 mm 1 mps 744 mmHg 95%
    05:00 +9°C° 0 mm 1 mps 744 mmHg 95%
    06:00 +8°C° 0 mm 2 mps 744 mmHg 95%
    07:00 +8°C° 0 mm 2 mps 744 mmHg 95%
    08:00 +9°C° 0 mm 2 mps 744 mmHg 91%
    09:00 +12°C° 0 mm 2 mps 744 mmHg 87%
    10:00 +13°C° 0 mm 2 mps 744 mmHg 83%
    11:00 +14°C° 0 mm 2 mps 744 mmHg 79%
    12:00 +15°C° 0 mm 2 mps 744 mmHg 75%
    13:00 +16°C° 0 mm 2 mps 744 mmHg 71%
    14:00 +16°C° 0 mm 2 mps 743 mmHg 73%
    15:00 +16°C° 0 mm 2 mps 743 mmHg 76%
    16:00 +16°C° 0 mm 1 mps 743 mmHg 78%
    17:00 +15°C° 0 mm 2 mps 743 mmHg 82%
    18:00 +14°C° 0 mm 2 mps 743 mmHg 86%
    19:00 +13°C° 0 mm 2 mps 744 mmHg 90%
    20:00 +12°C° 0 mm 2 mps 744 mmHg 90%
    21:00 +12°C° 0 mm 2 mps 744 mmHg 91%
    22:00 +12°C° 0 mm 2 mps 744 mmHg 92%
    23:00 +12°C° 0 mm 2 mps 744 mmHg 92%

    26 October, Thursday

    Time Temperature Precipitation Wind Pressure Humidity
    00:00 +12°C° 0 mm 2 mps 744 mmHg 92%
    01:00 +12°C° 0 mm 1 mps 744 mmHg 92%
    02:00 +11°C° 0 mm 1 mps 744 mmHg 92%
    03:00 +10°C° 0 mm 2 mps 744 mmHg 92%
    04:00 +10°C° 0 mm 2 mps 744 mmHg 91%
    05:00 +10°C° 0 mm 2 mps 744 mmHg 91%
    06:00 +10°C° 0 mm 2 mps 744 mmHg 91%
    07:00 +10°C° 0 mm 2 mps 744 mmHg 91%
    08:00 +12°C° 0 mm 2 mps 744 mmHg 85%
    09:00 +14°C° 0 mm 2 mps 744 mmHg 79%
    10:00 +15°C° 0 mm 2 mps 744 mmHg 73%
    11:00 +16°C° 0 mm 3 mps 744 mmHg 69%
    12:00 +17°C° 0 mm 3 mps 744 mmHg 66%
    13:00 +19°C° 0 mm 3 mps 743 mmHg 62%
    14:00 +18°C° 0 mm 3 mps 743 mmHg 65%
    15:00 +17°C° 0 mm 2 mps 743 mmHg 68%
    16:00 +17°C° 0 mm 2 mps 742 mmHg 72%
    17:00 +16°C° 0 mm 2 mps 742 mmHg 75%
    18:00 +15°C° 0 mm 2 mps 742 mmHg 79%
    19:00 +14°C° 0 mm 2 mps 742 mmHg 83%
    20:00 +14°C° 0 mm 2 mps 742 mmHg 84%
    21:00 +13°C° 0 mm 2 mps 742 mmHg 86%
    22:00 +13°C° 0 mm 2 mps 741 mmHg 87%
    23:00 +13°C° 0 mm 2 mps 741 mmHg 88%

    27 October, Friday

    Time Temperature Precipitation Wind Pressure Humidity
    00:00 +11°C° 0 mm 3 mps 741 mmHg 89%
    01:00 +11°C° 0 mm 3 mps 740 mmHg 90%
    02:00 +11°C° 0 mm 3 mps 740 mmHg 90%
    03:00 +11°C° 0 mm 3 mps 739 mmHg 90%
    04:00 +11°C° 0 mm 3 mps 738 mmHg 90%
    05:00 +11°C° 0 mm 3 mps 738 mmHg 89%
    06:00 +11°C° 0 mm 4 mps 738 mmHg 88%
    07:00 +11°C° 0 mm 4 mps 738 mmHg 87%
    08:00 +10°C° 0.2 mm 5 mps 738 mmHg 84%
    09:00 +12°C° 0.2 mm 5 mps 738 mmHg 82%
    10:00 +12°C° 0.2 mm 5 mps 738 mmHg 79%
    11:00 +12°C° 0.4 mm 5 mps 738 mmHg 78%
    12:00 +12°C° 0.4 mm 5 mps 738 mmHg 77%
    13:00 +11°C° 0.4 mm 4 mps 738 mmHg 76%
    14:00 +11°C° 0.1 mm 4 mps 738 mmHg 74%
    15:00 +11°C° 0.1 mm 4 mps 738 mmHg 73%
    16:00 +12°C° 0.1 mm 4 mps 737 mmHg 72%
    17:00 +11°C° 0 mm 4 mps 738 mmHg 73%
    18:00 +10°C° 0 mm 4 mps 738 mmHg 74%
    19:00 +8°C° 0 mm 5 mps 738 mmHg 76%
    20:00 +8°C° 0 mm 4 mps 738 mmHg 77%
    21:00 +8°C° 0 mm 4 mps 738 mmHg 78%
    22:00 +7°C° 0 mm 4 mps 739 mmHg 78%
    23:00 +7°C° 0 mm 4 mps 738 mmHg 80%
    Show more